Temperature
13 13 12 12 11 11 11 10 10 9 9 8 8 8 8 7 7 7 7 7 6 6 6 6 6 5 5 5 5 4 4 3 3 3 3 3 3 3 3 3 3 3 2
12 11 11 10 10 10 9 9 8 8 8 8 7 7 7 7 7 6 6 6 6 5 5 5 5 5 4 4 4 4 3 3 2 2 2 2 3 2 2 2 2 2 2
10 10 10 9 9 8 8 8 8 7 7 7 7 7 6 6 6 6 5 5 5 5 5 4 4 4 4 3 3 2 2 2 1 1 1 2 2 2 2 2 2 2 2
9 9 9 8 8 8 7 7 7 7 7 6 6 6 6 5 5 5 5 4 4 4 4 4 3 3 3 2 2 2 1 1 1 1 1 2 2 2 1 1 1 1 1
8 8 8 7 7 7 7 6 6 6 6 6 5 5 5 4 4 4 4 4 4 4 3 3 3 2 2 2 1 1 1 1 1 1 1 1 1 1 1 1 1 1 1
7 7 7 7 6 6 6 6 5 5 5 5 4 4 4 4 3 3 3 3 3 3 3 2 2 2 1 1 1 1 1 1 1 1 1 1 1 1 1 1 1 0 0
7 6 6 6 6 5 5 5 5 4 4 4 4 3 3 3 3 2 2 3 2 2 2 1 1 1 1 1 1 1 1 1 1 1 1 1 1 1 1 1 0 0 -0
6 6 5 5 5 5 4 4 4 4 3 3 3 3 2 2 2 2 2 2 1 1 1 1 1 1 1 1 1 1 2 2 2 2 1 1 1 1 1 0 0 -0 0
5 5 5 5 4 4 4 4 3 3 3 3 3 2 2 2 1 1 1 1 1 1 1 1 0 1 1 1 1 2 2 2 2 2 2 1 1 1 1 0 0 -0 -0
5 4 4 4 4 4 3 3 3 3 3 2 2 2 2 1 1 1 1 1 1 1 0 0 0 1 1 1 1 2 2 2 2 2 2 2 1 1 1 0 0 -0 -0
4 4 4 4 4 3 3 3 3 3 3 2 2 2 2 1 1 1 0 0 0 0 0 1 1 1 1 1 2 2 2 2 2 2 2 2 1 1 1 1 0 -0 -0
4 4 4 4 3 3 3 3 3 3 3 2 2 2 1 1 1 0 0 0 0 0 0 1 1 1 2 2 2 2 2 2 2 2 2 2 1 1 1 1 0 0 -0
4 4 4 4 3 3 3 3 3 3 3 2 2 2 1 1 0 0 0 0 0 0 0 1 1 2 2 2 2 2 2 2 2 2 2 2 1 1 1 1 1 1 0
4 4 4 4 4 3 3 3 3 3 3 2 2 2 1 1 0 0 0 0 0 0 1 1 1 2 2 3 3 3 3 3 2 2 2 2 2 1 1 1 1 1 1
4 4 4 4 4 4 3 3 3 3 3 2 2 1 1 1 0 0 0 0 0 1 1 1 2 2 3 3 3 3 3 3 3 3 3 2 2 2 2 2 1 1 1
4 4 4 4 4 4 4 3 3 3 2 2 1 1 1 0 -0 -0 -0 0 0 1 1 2 2 2 3 3 3 3 3 3 3 3 3 3 3 3 2 2 2 2 1
5 5 5 4 4 4 4 4 3 3 2 2 1 1 0 -0 -0 -0 0 0 1 1 1 2 2 2 3 3 3 4 4 4 4 4 4 4 3 3 3 3 3 2 2
5 5 5 5 4 4 4 4 3 3 2 1 1 0 -0 -0 -0 -0 0 0 1 1 2 2 2 3 3 3 4 4 4 4 4 4 4 4 4 4 4 4 4 3 3
5 5 5 5 4 4 4 3 3 2 2 1 1 0 -0 -0 -0 0 0 1 1 1 2 2 3 3 3 4 4 4 4 4 4 4 4 4 4 5 5 4 4 4 4
5 5 5 5 4 4 3 3 3 2 1 1 0 0 0 0 0 0 1 1 1 2 2 3 3 3 3 4 4 4 4 4 4 5 5 5 5 5 5 5 5 5 4
5 5 5 4 4 4 3 3 2 2 1 1 0 0 0 0 0 1 1 1 2 2 2 3 3 3 4 4 4 4 4 4 5 5 5 5 5 5 5 5 5 5 5
5 5 5 4 4 3 3 3 2 2 2 1 1 0 0 0 1 1 1 1 2 2 3 3 3 4 4 4 4 4 5 5 5 5 5 5 5 5 5 5 5 5 5
5 5 4 4 4 3 3 3 2 2 2 1 1 1 1 1 1 1 1 2 2 2 3 3 3 4 4 4 4 4 4 5 5 5 5 5 5 5 5 5 5 5 5
5 5 4 4 4 4 3 3 2 2 2 1 1 1 1 1 1 1 2 2 2 2 3 3 3 4 4 4 4 4 4 5 5 5 5 5 5 5 5 5 5 5 5
5 4 4 4 4 3 3 3 2 2 2 1 1 1 1 1 1 1 2 2 2 2 3 3 4 4 4 4 4 4 4 4 4 4 5 5 5 5 5 5 5 5 5
4 4 4 4 4 3 3 3 2 2 1 1 1 1 1 1 1 1 2 2 2 2 3 3 3 4 4 4 4 4 4 4 4 4 4 4 5 5 5 5 5 5 4
Wind_Speed
14 14 14 13 13 13 12 12 11 10 9 10 10 10 10 10 9 9 8 8 8 7 6 6 5 4 3 3 3 3 2 1 2 4 4 5 5 8 15 19 19 19 18
14 15 15 14 13 13 12 12 11 11 9 9 10 11 12 12 10 10 9 8 7 6 5 5 4 3 3 2 2 2 2 2 2 5 5 5 7 9 8 10 15 17 18
14 15 15 14 14 13 12 12 11 11 11 11 12 12 11 11 10 9 8 7 6 5 4 3 2 3 2 2 2 3 3 3 3 5 7 6 6 8 8 9 10 11 16
15 15 14 13 13 12 11 11 11 11 12 12 12 11 10 10 9 7 7 7 6 6 5 4 3 3 3 3 3 4 4 5 5 6 7 7 7 8 6 7 10 8 10
14 14 13 12 12 11 11 11 11 11 12 11 11 10 8 7 7 7 6 6 5 6 6 5 5 6 3 2 3 3 4 4 6 6 8 8 9 8 8 6 10 9 9
12 11 10 11 11 11 10 10 10 10 10 10 9 8 8 6 8 9 6 5 5 5 6 6 6 5 5 5 7 8 9 8 7 6 8 10 11 10 9 9 9 9 7
10 10 9 9 9 9 9 9 9 8 8 8 7 7 6 4 7 9 10 5 5 5 6 6 6 5 5 4 7 11 12 15 13 8 10 11 10 10 9 9 8 9 10
9 8 7 8 8 7 8 8 7 6 6 5 5 5 4 2 3 6 9 6 5 6 6 6 6 7 5 5 6 8 10 11 11 8 9 11 11 10 8 6 7 8 8
7 7 6 7 7 7 6 5 4 4 4 3 3 4 4 2 1 2 5 5 5 7 7 7 7 6 8 9 7 9 12 12 14 14 15 16 18 16 10 5 6 7 8
6 6 6 6 6 6 5 3 2 2 2 2 2 3 4 4 5 4 3 2 4 6 7 8 10 10 11 12 8 8 11 12 11 12 12 12 10 10 11 5 5 7 7
5 5 5 5 5 5 3 2 2 2 1 1 0 1 2 3 4 5 6 3 4 5 6 6 7 13 15 16 13 8 12 12 10 9 8 7 6 5 6 7 5 5 6
5 5 5 4 3 3 3 1 2 2 2 2 2 2 2 2 2 5 8 8 7 4 5 6 8 15 17 16 12 11 15 12 6 5 5 5 5 5 6 6 9 9 7
4 4 3 2 2 2 2 1 2 3 3 2 2 2 3 3 4 8 9 10 10 5 6 11 14 16 15 11 12 14 11 6 4 4 4 4 4 5 6 6 7 8 9
2 1 1 2 1 0 1 2 2 2 3 3 3 2 1 2 4 5 5 6 8 8 7 10 14 13 10 9 9 8 6 4 3 3 4 4 4 5 4 3 4 4 5
2 2 2 3 2 1 1 1 2 2 4 4 2 2 0 3 5 7 6 6 6 7 7 5 5 6 8 8 8 7 6 5 4 3 3 4 4 4 4 4 3 3 4
3 3 3 2 2 3 3 3 5 3 5 6 6 4 2 3 8 10 11 12 13 10 5 4 6 7 7 7 8 7 6 5 4 4 4 4 4 5 5 4 3 3 4
4 4 3 2 2 3 4 5 3 1 1 0 1 1 3 6 9 11 12 12 10 8 4 5 6 7 8 7 7 5 4 5 4 4 5 5 5 5 5 5 5 4 4
4 4 3 2 2 3 4 5 4 4 2 2 4 5 7 8 9 10 11 8 6 6 4 6 7 7 7 7 7 5 5 5 5 5 5 6 5 5 5 5 5 4 4
3 2 2 1 1 3 4 4 4 4 2 1 2 3 6 6 7 7 7 3 4 5 6 6 6 7 7 6 6 5 5 5 5 5 6 6 6 5 5 5 5 6 4
1 2 3 3 3 4 5 4 4 3 3 1 1 2 3 3 3 4 4 4 4 5 6 7 7 7 6 6 6 6 6 6 7 6 6 7 7 5 6 6 5 4 3
1 2 5 5 5 5 5 4 4 4 3 2 1 1 1 2 3 4 4 5 5 6 6 6 6 7 6 6 6 7 7 6 6 7 7 7 8 7 6 5 5 4 3
2 4 4 4 4 4 4 4 4 4 3 3 1 1 2 2 3 4 4 5 5 4 6 4 5 4 4 5 6 6 7 7 7 7 8 8 8 7 6 5 5 4 4
4 5 4 3 3 4 4 3 3 3 3 2 1 1 2 2 3 4 4 5 5 7 9 9 6 6 11 11 10 7 6 7 7 7 7 7 7 6 5 5 6 5 6
4 4 4 3 3 3 3 3 3 3 3 3 2 2 2 2 3 4 4 4 6 8 10 11 11 11 14 14 14 13 13 14 12 9 8 6 6 6 5 5 6 7 6
4 4 4 3 4 4 4 4 4 4 4 3 3 2 2 3 3 4 4 6 7 8 10 12 14 14 16 16 17 18 20 18 15 14 11 6 7 7 6 6 6 7 8
3 4 4 4 5 5 5 5 5 4 4 3 2 2 2 3 3 4 4 5 6 8 10 13 15 17 18 18 20 22 22 20 18 16 13 9 7 7 7 6 8 7 8
Wind_Direction
85 89 92 93 97 99 100 100 100 97 94 92 89 83 76 71 68 72 71 70 71 63 60 67 62 64 50 37 44 42 36 118 264 280 270 291 300 304 312 310 309 303 300
86 88 89 90 91 91 91 91 91 90 87 86 84 81 77 72 65 65 63 58 61 59 53 56 42 44 35 26 23 359 327 301 275 299 300 302 299 298 292 295 302 304 301
86 88 88 87 88 89 89 88 87 86 84 84 83 81 77 72 66 61 60 52 45 39 32 37 20 23 348 319 315 311 298 305 291 289 298 294 293 296 298 297 295 295 300
86 86 86 85 86 85 84 81 80 82 85 85 84 81 77 72 64 55 50 41 26 14 3 357 345 324 295 284 287 291 292 301 298 294 295 298 294 293 291 297 304 297 299
85 86 87 87 85 82 79 78 78 81 87 91 91 84 76 69 60 53 37 29 11 356 347 340 325 327 326 285 289 291 296 293 295 294 297 302 304 306 305 296 303 304 297
87 86 85 85 85 83 81 81 82 84 89 92 92 90 81 74 61 48 37 15 354 344 331 324 317 320 329 331 329 324 316 304 296 289 295 299 299 297 298 300 304 311 308
88 88 87 87 85 85 89 84 84 87 93 99 104 103 99 88 60 36 22 18 353 338 327 322 322 319 322 311 315 318 313 306 295 282 282 286 292 298 301 302 303 305 301
90 89 88 88 87 86 84 83 84 90 100 110 124 133 131 128 61 29 17 15 1 350 338 329 320 311 300 295 302 307 303 299 292 285 266 276 286 290 288 285 289 295 290
90 90 90 91 90 86 84 83 84 92 101 126 146 158 167 205 243 360 18 360 347 338 333 334 331 318 299 305 305 304 306 305 304 293 286 289 293 295 292 292 305 311 314
93 94 94 93 97 97 97 89 82 101 122 146 169 191 193 212 236 257 341 350 334 327 325 323 326 317 309 310 300 291 296 299 305 312 313 315 312 311 311 288 284 302 309
95 93 89 95 104 105 95 81 89 95 72 29 318 262 221 223 243 276 309 319 305 311 314 314 310 311 311 309 304 278 273 284 297 299 306 311 315 313 309 303 283 273 295
87 89 100 115 126 120 110 78 68 73 50 16 20 3 360 11 27 352 351 346 341 305 297 299 302 308 311 310 309 296 299 303 299 311 317 316 314 310 307 305 305 298 283
93 99 115 130 135 140 143 127 62 66 77 53 50 33 15 24 7 3 356 348 346 333 297 306 310 311 313 313 312 317 321 321 323 326 318 304 293 293 303 312 314 317 316
104 126 176 183 217 79 84 123 125 120 107 90 76 57 13 340 336 338 334 328 330 326 317 316 314 310 317 314 318 326 329 321 313 299 295 296 307 318 316 310 310 319 328
185 233 247 233 216 185 71 76 133 171 167 147 148 148 46 322 306 313 314 311 309 299 310 314 325 335 342 342 338 333 332 338 336 319 310 310 313 317 310 308 310 318 328
196 238 252 246 218 181 142 80 56 92 122 132 147 155 222 269 308 323 324 319 318 319 323 328 330 333 331 327 327 327 324 323 310 302 300 296 299 303 305 308 311 317 320
207 228 239 248 219 179 169 159 149 44 19 99 203 248 289 309 322 326 328 328 333 349 356 331 327 325 324 324 322 315 305 306 302 304 300 297 297 298 300 304 310 314 312
227 239 227 233 206 174 177 175 168 172 213 287 290 285 299 312 321 327 333 342 348 351 333 322 321 322 323 324 322 320 320 326 328 318 310 305 302 296 298 300 301 299 301
239 234 217 202 156 145 143 149 158 169 183 235 309 321 313 317 324 332 341 356 334 327 325 323 322 323 324 325 325 327 335 338 337 333 327 320 314 307 303 301 302 304 303
270 187 140 124 116 120 125 133 142 151 161 178 257 309 329 346 349 341 343 333 325 322 325 328 330 333 334 335 339 344 349 348 346 343 335 332 328 321 315 316 316 313 302
79 104 112 109 120 131 137 148 157 159 164 175 217 273 328 343 334 332 333 330 328 327 329 332 336 341 346 349 350 351 352 344 341 338 336 334 334 334 331 336 339 335 336
132 134 129 126 130 137 146 159 159 161 172 176 232 321 345 350 343 338 329 325 323 319 328 330 342 342 343 349 350 349 347 343 340 337 333 331 334 338 342 350 354 356 1
126 135 135 138 136 142 139 140 141 146 149 153 152 57 18 3 347 334 328 328 331 348 4 12 6 360 360 359 357 351 340 329 317 309 314 322 333 342 349 355 358 6 15
116 135 145 150 138 132 132 128 125 125 120 117 108 81 42 9 347 340 340 342 358 12 22 22 16 7 2 2 358 355 348 337 328 315 306 316 339 351 3 12 14 21 28
120 128 128 129 130 130 122 114 112 108 104 103 99 76 40 13 359 352 349 7 18 24 26 24 19 12 5 2 360 355 355 360 3 1 357 355 5 13 22 26 31 36 39
132 135 126 120 122 125 122 118 116 116 112 103 90 71 46 24 8 1 2 18 29 30 26 21 17 15 11 5 0 2 6 10 13 17 21 21 22 25 31 35 40 42 47
Height
1511 1513 1515 1517 1520 1522 1524 1527 1530 1533 1536 1538 1541 1543 1545 1546 1547 1548 1548 1548 1548 1548 1547 1546 1545 1544 1543 1541 1539 1537 1535 1533 1530 1527 1525 1522 1519 1516 1513 1510 1506 1502 1498
1514 1515 1517 1520 1522 1524 1527 1530 1533 1535 1538 1540 1542 1544 1545 1546 1547 1548 1548 1548 1548 1547 1546 1544 1543 1541 1540 1538 1536 1534 1532 1529 1526 1522 1519 1517 1514 1511 1507 1504 1500 1496 1491
1518 1519 1521 1524 1526 1529 1531 1534 1536 1538 1540 1542 1544 1545 1546 1546 1547 1547 1547 1547 1546 1545 1543 1542 1540 1539 1537 1535 1533 1531 1529 1526 1523 1519 1515 1512 1509 1506 1502 1498 1494 1489 1485
1523 1524 1526 1528 1531 1533 1535 1537 1539 1541 1542 1543 1545 1545 1546 1546 1546 1546 1546 1545 1544 1542 1541 1540 1538 1536 1534 1532 1530 1528 1526 1523 1520 1516 1511 1508 1504 1501 1497 1492 1486 1482 1478
1528 1529 1531 1533 1535 1537 1538 1539 1541 1542 1543 1544 1545 1546 1546 1546 1546 1545 1544 1543 1541 1540 1538 1537 1535 1533 1531 1529 1528 1525 1522 1519 1515 1511 1507 1503 1500 1496 1492 1487 1481 1476 1471
1533 1534 1535 1537 1537 1539 1540 1542 1543 1544 1545 1545 1546 1546 1546 1546 1545 1544 1542 1540 1539 1537 1536 1534 1532 1531 1529 1527 1525 1523 1520 1516 1511 1508 1504 1500 1496 1492 1487 1482 1477 1471 1465
1536 1537 1539 1540 1540 1541 1543 1544 1544 1545 1546 1546 1546 1546 1546 1545 1544 1543 1541 1539 1537 1535 1533 1532 1530 1528 1527 1524 1522 1519 1517 1513 1510 1505 1501 1497 1492 1488 1483 1478 1474 1468 1463
1539 1540 1542 1542 1543 1544 1545 1545 1545 1546 1546 1547 1547 1547 1546 1545 1544 1542 1540 1538 1535 1533 1531 1529 1527 1525 1524 1521 1518 1515 1512 1510 1506 1503 1499 1494 1489 1485 1480 1476 1471 1465 1460
1542 1543 1544 1545 1546 1547 1547 1547 1547 1547 1547 1548 1547 1546 1546 1544 1543 1541 1539 1537 1534 1531 1529 1527 1525 1523 1521 1518 1515 1512 1509 1506 1503 1499 1495 1491 1486 1482 1478 1473 1468 1463 1457
1545 1546 1547 1548 1548 1548 1548 1549 1549 1549 1549 1548 1547 1546 1545 1543 1542 1540 1537 1535 1532 1529 1527 1525 1523 1521 1519 1516 1513 1509 1506 1502 1499 1495 1491 1487 1483 1479 1476 1471 1466 1461 1456
1548 1549 1549 1550 1550 1550 1550 1550 1550 1550 1549 1548 1547 1546 1544 1543 1541 1539 1536 1533 1530 1527 1525 1523 1521 1519 1516 1514 1511 1508 1504 1500 1496 1492 1488 1485 1481 1478 1474 1470 1465 1461 1455
1550 1551 1551 1552 1552 1552 1552 1552 1551 1551 1549 1548 1547 1545 1543 1541 1539 1537 1535 1531 1528 1526 1524 1522 1519 1517 1515 1512 1510 1506 1503 1499 1495 1491 1487 1484 1480 1476 1473 1469 1465 1460 1456
1552 1553 1553 1553 1553 1553 1553 1552 1552 1551 1549 1548 1546 1544 1542 1540 1538 1536 1533 1530 1527 1525 1523 1521 1519 1517 1514 1511 1509 1505 1502 1498 1494 1490 1487 1484 1480 1476 1473 1469 1465 1460 1456
1554 1554 1554 1554 1554 1554 1553 1552 1552 1551 1549 1547 1545 1543 1541 1539 1536 1534 1531 1528 1526 1525 1523 1521 1519 1517 1514 1511 1508 1505 1502 1498 1494 1491 1488 1485 1481 1477 1473 1469 1465 1460 1455
1554 1554 1554 1554 1554 1553 1553 1552 1551 1550 1549 1547 1545 1542 1540 1537 1535 1532 1530 1528 1526 1524 1523 1521 1519 1517 1514 1511 1509 1506 1502 1499 1496 1493 1489 1486 1483 1479 1475 1471 1466 1462 1457
1554 1554 1554 1553 1553 1552 1552 1551 1550 1549 1548 1546 1544 1542 1539 1537 1534 1532 1530 1528 1526 1525 1523 1521 1519 1517 1515 1512 1509 1507 1504 1501 1498 1495 1491 1488 1484 1480 1476 1473 1468 1464 1459
1554 1554 1553 1553 1552 1551 1550 1549 1549 1548 1547 1545 1543 1541 1539 1536 1534 1532 1530 1528 1527 1526 1524 1522 1520 1518 1516 1513 1511 1508 1506 1503 1500 1497 1493 1490 1486 1482 1478 1474 1470 1466 1462
1554 1553 1552 1551 1551 1550 1549 1548 1548 1547 1546 1545 1543 1541 1538 1536 1534 1532 1531 1529 1528 1526 1525 1523 1521 1519 1517 1514 1512 1510 1507 1505 1502 1498 1495 1491 1487 1483 1479 1475 1471 1467 1464
1553 1552 1551 1550 1550 1549 1548 1548 1547 1547 1546 1544 1543 1540 1538 1536 1534 1533 1531 1530 1529 1528 1526 1524 1522 1520 1518 1516 1514 1512 1509 1506 1503 1500 1496 1492 1488 1485 1481 1477 1473 1469 1466
1552 1551 1550 1550 1549 1549 1548 1548 1547 1546 1545 1544 1543 1541 1539 1537 1535 1534 1533 1532 1531 1529 1528 1526 1524 1522 1520 1518 1516 1513 1511 1508 1505 1501 1498 1494 1490 1486 1483 1479 1475 1471 1468
1551 1551 1550 1550 1549 1549 1549 1548 1548 1547 1546 1545 1543 1542 1540 1538 1537 1536 1535 1534 1533 1531 1530 1528 1526 1524 1522 1520 1518 1515 1513 1510 1506 1503 1499 1496 1492 1489 1485 1481 1478 1474 1471
1551 1551 1551 1550 1550 1550 1549 1549 1548 1548 1547 1546 1544 1543 1542 1540 1539 1538 1538 1537 1535 1534 1532 1530 1528 1526 1524 1522 1520 1517 1515 1512 1509 1505 1502 1498 1495 1491 1488 1484 1481 1477 1474
1551 1551 1551 1551 1551 1551 1550 1550 1549 1549 1548 1547 1546 1544 1543 1542 1541 1540 1540 1539 1538 1536 1534 1532 1530 1528 1526 1524 1522 1519 1517 1514 1511 1508 1504 1501 1498 1494 1491 1488 1484 1481 1478
1552 1552 1552 1551 1551 1551 1551 1551 1550 1550 1549 1548 1547 1545 1544 1544 1543 1543 1542 1541 1540 1538 1536 1534 1532 1530 1528 1526 1524 1522 1519 1516 1513 1510 1507 1503 1500 1497 1494 1491 1488 1485 1482
1553 1553 1552 1552 1552 1552 1552 1551 1551 1550 1550 1549 1548 1547 1546 1545 1545 1544 1544 1543 1541 1539 1537 1535 1533 1531 1529 1527 1525 1523 1521 1518 1515 1511 1508 1505 1503 1500 1497 1494 1492 1489 1487
1553 1553 1553 1553 1553 1553 1553 1552 1552 1551 1551 1550 1549 1548 1547 1547 1547 1546 1545 1544 1542 1540 1538 1536 1534 1532 1530 1528 1526 1524 1522 1519 1516 1513 1510 1507 1505 1502 1500 1498 1495 1493 1491